Time,TemperatureF,DewpointF,PressureIn,WindDirection,WindDirectionDegrees,WindSpeedMPH,WindSpeedGustMPH,Humidity,HourlyPrecipIn,Conditions,Clouds,dailyrainin,SoftwareType,DateUTC
2013-07-22 00:02:00,73.8,74.0,30.05,SSW,199,0.0,0.0,99,0.00,,,0.00,weatherlink.com 1.10,2013-07-22 05:02:00,
2013-07-22 00:18:00,73.7,73.0,30.04,SSW,199,0.0,0.0,99,0.00,,,0.00,weatherlink.com 1.10,2013-07-22 05:18:00,
2013-07-22 00:32:00,73.7,73.0,30.03,SSW,199,0.0,0.0,99,0.00,,,0.00,weatherlink.com 1.10,2013-07-22 05:32:00,
2013-07-22 00:48:00,73.8,74.0,30.03,SSW,199,0.0,0.0,99,0.00,,,0.00,weatherlink.com 1.10,2013-07-22 05:48:00,
2013-07-22 01:03:00,73.9,74.0,30.03,SSW,199,0.0,0.0,99,0.00,,,0.00,weatherlink.com 1.10,2013-07-22 06:03:00,
2013-07-22 01:18:00,73.8,74.0,30.03,SSW,199,0.0,0.0,99,0.00,,,0.00,weatherlink.com 1.10,2013-07-22 06:18:00,
2013-07-22 01:33:00,73.8,74.0,30.02,SSW,199,0.0,0.0,99,0.00,,,0.00,weatherlink.com 1.10,2013-07-22 06:33:00,
2013-07-22 01:48:00,73.7,73.0,30.01,SSW,199,0.0,0.0,99,0.00,,,0.00,weatherlink.com 1.10,2013-07-22 06:48:00,
2013-07-22 02:03:00,73.6,73.0,30.01,SSW,199,0.0,0.0,99,0.00,,,0.00,weatherlink.com 1.10,2013-07-22 07:03:00,
2013-07-22 02:18:00,73.7,73.0,30.01,SSW,199,0.0,0.0,99,0.00,,,0.00,weatherlink.com 1.10,2013-07-22 07:18:00,
2013-07-22 02:33:00,73.8,74.0,30.01,SSW,199,0.0,0.0,99,0.00,,,0.00,weatherlink.com 1.10,2013-07-22 07:33:00,
2013-07-22 02:48:00,73.7,73.0,30.01,SSW,199,0.0,0.0,99,0.00,,,0.00,weatherlink.com 1.10,2013-07-22 07:48:00,
2013-07-22 03:03:00,73.9,74.0,30.01,SSW,199,0.0,0.0,100,0.00,,,0.00,weatherlink.com 1.10,2013-07-22 08:03:00,
2013-07-22 03:18:00,74.2,74.0,30.01,SSW,199,0.0,0.0,100,0.00,,,0.00,weatherlink.com 1.10,2013-07-22 08:18:00,
2013-07-22 03:33:00,74.2,74.0,30.01,SSW,199,0.0,0.0,100,0.00,,,0.00,weatherlink.com 1.10,2013-07-22 08:33:00,
2013-07-22 03:48:00,74.4,74.0,30.01,SSW,199,0.0,0.0,100,0.00,,,0.00,weatherlink.com 1.10,2013-07-22 08:48:00,
2013-07-22 04:03:00,74.5,75.0,30.01,SSW,199,0.0,0.0,100,0.00,,,0.00,weatherlink.com 1.10,2013-07-22 09:03:00,
2013-07-22 04:18:00,74.4,74.0,30.01,SSW,199,0.0,0.0,100,0.00,,,0.00,weatherlink.com 1.10,2013-07-22 09:18:00,
2013-07-22 04:33:00,74.3,74.0,30.01,SSW,199,0.0,0.0,100,0.00,,,0.00,weatherlink.com 1.10,2013-07-22 09:33:00,
2013-07-22 04:48:00,74.0,74.0,30.02,SSW,199,0.0,0.0,100,0.00,,,0.00,weatherlink.com 1.10,2013-07-22 09:48:00,
2013-07-22 05:03:00,73.8,74.0,30.02,SSW,199,0.0,0.0,100,0.00,,,0.00,weatherlink.com 1.10,2013-07-22 10:03:00,
2013-07-22 05:18:00,73.7,74.0,30.02,SSW,199,0.0,0.0,100,0.00,,,0.00,weatherlink.com 1.10,2013-07-22 10:18:00,
2013-07-22 05:33:00,73.7,74.0,30.03,SSW,199,0.0,0.0,100,0.00,,,0.00,weatherlink.com 1.10,2013-07-22 10:33:00,
2013-07-22 05:48:00,73.5,74.0,30.03,SSW,199,0.0,0.0,100,0.00,,,0.00,weatherlink.com 1.10,2013-07-22 10:48:00,
2013-07-22 06:03:00,73.5,74.0,30.04,SSW,199,0.0,0.0,100,0.00,,,0.00,weatherlink.com 1.10,2013-07-22 11:03:00,
2013-07-22 06:18:00,73.5,74.0,30.03,SSW,199,0.0,0.0,100,0.00,,,0.00,weatherlink.com 1.10,2013-07-22 11:18:00,
2013-07-22 06:33:00,74.2,74.0,30.03,SSW,199,0.0,0.0,100,0.00,,,0.00,weatherlink.com 1.10,2013-07-22 11:33:00,
2013-07-22 06:48:00,74.8,75.0,30.04,SSW,199,0.0,0.0,100,0.00,,,0.00,weatherlink.com 1.10,2013-07-22 11:48:00,
2013-07-22 07:03:00,75.4,75.0,30.04,SSW,199,0.0,0.0,100,0.00,,,0.00,weatherlink.com 1.10,2013-07-22 12:03:00,
2013-07-22 07:18:00,76.0,76.0,30.04,SSW,199,0.0,0.0,100,0.00,,,0.00,weatherlink.com 1.10,2013-07-22 12:18:00,
2013-07-22 07:33:00,77.3,77.0,30.04,SSW,199,0.0,0.0,100,0.00,,,0.00,weatherlink.com 1.10,2013-07-22 12:33:00,
2013-07-22 07:48:00,78.1,78.0,30.04,NNW,341,0.0,2.0,100,0.00,,,0.00,weatherlink.com 1.10,2013-07-22 12:48:00,
2013-07-22 08:03:00,79.4,79.0,30.05,SW,224,0.0,2.0,97,0.00,,,0.00,weatherlink.com 1.10,2013-07-22 13:03:00,
2013-07-22 08:18:00,81.4,79.0,30.05,NW,321,2.0,4.0,91,0.00,,,0.00,weatherlink.com 1.10,2013-07-22 13:18:00,
2013-07-22 08:33:00,82.4,77.0,30.05,SSW,207,0.0,7.0,84,0.00,,,0.00,weatherlink.com 1.10,2013-07-22 13:33:00,
2013-07-22 08:48:00,83.2,77.0,30.05,SW,220,0.0,2.0,82,0.00,,,0.00,weatherlink.com 1.10,2013-07-22 13:48:00,
2013-07-22 09:03:00,84.8,78.0,30.05,SSW,194,4.0,5.0,80,0.00,,,0.00,weatherlink.com 1.10,2013-07-22 14:03:00,
2013-07-22 09:18:00,85.2,77.0,30.05,SE,126,0.0,6.0,77,0.00,,,0.00,weatherlink.com 1.10,2013-07-22 14:18:00,
2013-07-22 09:34:00,85.1,78.0,30.05,SSW,197,0.0,7.0,79,0.00,,,0.00,weatherlink.com 1.10,2013-07-22 14:34:00,
2013-07-22 09:48:00,85.6,79.0,30.05,SE,124,0.0,9.0,80,0.00,,,0.00,weatherlink.com 1.10,2013-07-22 14:48:00,
2013-07-22 10:03:00,86.4,78.0,30.05,NW,316,1.0,8.0,76,0.00,,,0.00,weatherlink.com 1.10,2013-07-22 15:03:00,
2013-07-22 10:19:00,87.2,79.0,30.05,ESE,117,1.0,6.0,76,0.00,,,0.00,weatherlink.com 1.10,2013-07-22 15:19:00,
2013-07-22 10:34:00,87.0,79.0,30.05,SW,224,1.0,6.0,76,0.00,,,0.00,weatherlink.com 1.10,2013-07-22 15:34:00,
2013-07-22 10:49:00,86.7,79.0,30.04,West,265,1.0,6.0,77,0.00,,,0.00,weatherlink.com 1.10,2013-07-22 15:49:00,
2013-07-22 11:04:00,88.6,79.0,30.03,NE,50,1.0,5.0,73,0.00,,,0.00,weatherlink.com 1.10,2013-07-22 16:04:00,
2013-07-22 11:19:00,83.3,73.0,30.04,SSW,213,0.0,7.0,71,0.00,,,0.00,weatherlink.com 1.10,2013-07-22 16:19:00,
2013-07-22 11:34:00,82.5,75.0,30.04,SW,217,1.0,6.0,78,0.00,,,0.00,weatherlink.com 1.10,2013-07-22 16:34:00,
2013-07-22 11:49:00,78.9,73.0,30.07,WSW,248,6.0,15.0,82,0.02,,,0.02,weatherlink.com 1.10,2013-07-22 16:49:00,
2013-07-22 12:04:00,75.6,73.0,30.05,SW,218,0.0,2.0,91,0.05,,,0.05,weatherlink.com 1.10,2013-07-22 17:04:00,
2013-07-22 12:19:00,75.2,73.0,30.05,SE,144,0.0,1.0,93,0.06,,,0.06,weatherlink.com 1.10,2013-07-22 17:19:00,
2013-07-22 12:34:00,75.5,74.0,30.06,SSE,156,0.0,1.0,95,0.06,,,0.06,weatherlink.com 1.10,2013-07-22 17:34:00,
2013-07-22 12:49:00,75.9,74.0,30.05,SE,141,0.0,1.0,95,0.03,,,0.06,weatherlink.com 1.10,2013-07-22 17:49:00,
2013-07-22 13:19:00,77.1,75.0,30.05,South,181,0.0,1.0,94,0.01,,,0.07,weatherlink.com 1.10,2013-07-22 18:19:00,
2013-07-22 13:34:00,78.5,76.0,30.04,South,188,0.0,3.0,93,0.01,,,0.07,weatherlink.com 1.10,2013-07-22 18:34:00,
2013-07-22 13:49:00,79.6,76.0,30.03,WSW,248,5.0,6.0,89,0.01,,,0.07,weatherlink.com 1.10,2013-07-22 18:49:00,
2013-07-22 14:19:00,83.0,79.0,30.03,SSE,167,0.0,7.0,86,0.00,,,0.07,weatherlink.com 1.10,2013-07-22 19:19:00,
2013-07-22 14:50:00,83.3,78.0,30.03,SW,222,0.0,7.0,83,0.00,,,0.07,weatherlink.com 1.10,2013-07-22 19:50:00,
2013-07-22 15:04:00,83.1,77.0,30.03,SSW,200,0.0,5.0,82,0.00,,,0.07,weatherlink.com 1.10,2013-07-22 20:04:00,
2013-07-22 15:19:00,82.8,77.0,30.03,SE,144,6.0,6.0,82,0.00,,,0.07,weatherlink.com 1.10,2013-07-22 20:19:00,
2013-07-22 15:34:00,83.0,78.0,30.03,SE,124,0.0,2.0,84,0.00,,,0.07,weatherlink.com 1.10,2013-07-22 20:34:00,
2013-07-22 15:49:00,83.1,78.0,30.02,South,190,1.0,2.0,85,0.00,,,0.07,weatherlink.com 1.10,2013-07-22 20:49:00,
2013-07-22 16:04:00,82.7,78.0,30.01,SSE,163,1.0,6.0,85,0.00,,,0.07,weatherlink.com 1.10,2013-07-22 21:04:00,
2013-07-22 16:19:00,81.7,78.0,30.01,SSE,168,3.0,5.0,89,0.00,,,0.07,weatherlink.com 1.10,2013-07-22 21:19:00,
2013-07-22 16:34:00,81.3,78.0,30.01,SE,141,1.0,8.0,89,0.00,,,0.07,weatherlink.com 1.10,2013-07-22 21:34:00,
2013-07-22 16:49:00,78.9,75.0,30.01,NNW,345,5.0,12.0,87,0.14,,,0.21,weatherlink.com 1.10,2013-07-22 21:49:00,
2013-07-22 17:04:00,76.6,75.0,30.00,SW,224,0.0,1.0,95,0.23,,,0.30,weatherlink.com 1.10,2013-07-22 22:04:00,
2013-07-22 17:19:00,77.1,76.0,30.01,WSW,240,0.0,4.0,97,0.23,,,0.30,weatherlink.com 1.10,2013-07-22 22:19:00,
2013-07-22 17:34:00,77.1,75.0,30.00,NW,309,4.0,5.0,94,0.23,,,0.30,weatherlink.com 1.10,2013-07-22 22:34:00,
2013-07-22 17:49:00,77.1,76.0,30.01,ESE,111,0.0,4.0,95,0.09,,,0.30,weatherlink.com 1.10,2013-07-22 22:49:00,
2013-07-22 18:04:00,76.9,74.0,30.02,WSW,254,6.0,16.0,91,0.01,,,0.31,weatherlink.com 1.10,2013-07-22 23:04:00,
2013-07-22 18:19:00,74.9,73.0,30.01,NW,304,5.0,10.0,92,0.04,,,0.34,weatherlink.com 1.10,2013-07-22 23:19:00,
2013-07-22 18:34:00,73.0,72.0,30.04,South,179,0.0,4.0,95,0.08,,,0.38,weatherlink.com 1.10,2013-07-22 23:34:00,
2013-07-22 18:49:00,72.4,71.0,30.04,SSE,150,0.0,3.0,96,0.11,,,0.41,weatherlink.com 1.10,2013-07-22 23:49:00,
2013-07-22 19:04:00,72.3,71.0,30.04,ENE,65,0.0,0.0,97,0.10,,,0.41,weatherlink.com 1.10,2013-07-23 00:04:00,
2013-07-22 19:19:00,72.2,72.0,30.03,ENE,65,0.0,0.0,98,0.07,,,0.42,weatherlink.com 1.10,2013-07-23 00:19:00,
2013-07-22 19:34:00,72.3,72.0,30.03,ENE,60,0.0,1.0,98,0.03,,,0.42,weatherlink.com 1.10,2013-07-23 00:34:00,
2013-07-22 19:49:00,72.2,72.0,30.05,NE,52,0.0,0.0,98,0.01,,,0.42,weatherlink.com 1.10,2013-07-23 00:49:00,
2013-07-22 20:04:00,72.3,72.0,30.05,NNW,330,0.0,1.0,98,0.01,,,0.42,weatherlink.com 1.10,2013-07-23 01:04:00,
2013-07-22 20:19:00,72.3,72.0,30.05,NNW,336,0.0,1.0,98,0.00,,,0.42,weatherlink.com 1.10,2013-07-23 01:19:00,
2013-07-22 20:34:00,72.3,72.0,30.05,South,179,0.0,0.0,99,0.00,,,0.42,weatherlink.com 1.10,2013-07-23 01:34:00,
2013-07-22 20:49:00,72.2,72.0,30.05,South,179,0.0,0.0,99,0.00,,,0.42,weatherlink.com 1.10,2013-07-23 01:49:00,
2013-07-22 21:04:00,72.1,72.0,30.05,South,179,0.0,0.0,99,0.00,,,0.42,weatherlink.com 1.10,2013-07-23 02:04:00,
2013-07-22 21:19:00,72.2,72.0,30.06,South,179,0.0,0.0,99,0.01,,,0.43,weatherlink.com 1.10,2013-07-23 02:19:00,
2013-07-22 21:34:00,72.3,72.0,30.06,South,191,0.0,1.0,99,0.01,,,0.43,weatherlink.com 1.10,2013-07-23 02:34:00,
2013-07-22 21:49:00,72.4,72.0,30.06,SSW,211,0.0,1.0,99,0.01,,,0.43,weatherlink.com 1.10,2013-07-23 02:49:00,
2013-07-22 22:19:00,72.3,72.0,30.05,WSW,243,0.0,1.0,99,0.02,,,0.45,weatherlink.com 1.10,2013-07-23 03:19:00,
2013-07-22 22:34:00,72.2,72.0,30.04,SSW,209,0.0,1.0,99,0.02,,,0.45,weatherlink.com 1.10,2013-07-23 03:34:00,
2013-07-22 22:49:00,72.1,72.0,30.04,SSW,209,0.0,0.0,99,0.02,,,0.45,weatherlink.com 1.10,2013-07-23 03:49:00,
2013-07-22 23:04:00,72.0,72.0,30.03,SSW,193,0.0,0.0,99,0.01,,,0.45,weatherlink.com 1.10,2013-07-23 04:04:00,
2013-07-22 23:19:00,72.0,72.0,30.03,SSW,193,0.0,1.0,99,0.00,,,0.45,weatherlink.com 1.10,2013-07-23 04:19:00,
2013-07-22 23:34:00,71.9,72.0,30.02,SSW,192,0.0,1.0,99,0.00,,,0.45,weatherlink.com 1.10,2013-07-23 04:34:00,
2013-07-22 23:49:00,71.8,72.0,30.02,SSW,192,0.0,0.0,99,0.00,,,0.45,weatherlink.com 1.10,2013-07-23 04:49:00,